Location: Mountain View
(37.3861°N, 122.0839°W)
Time: 16:36:02
(UTC-07:00)

Envisat - Pass Details

Date: 11 May 2026
Orbit: 761 x 763 km, 98.4° (Epoch: 7 June)

Event Time Altitude Azimuth Distance (km) Brightness Sun altitude
Rises 02:49:38 0° 27° (NNE) 3,228 7.5 -29.4°
Reaches altitude 10° 02:52:19 10° 40° (NE) 2,298 6.4 -29.2°
Maximum altitude 02:56:29 25° 95° (E) 1,491 4.7 -28.7°
Enters shadow 02:57:25 24° 113° (ESE) 1,542 4.6 -28.6°
